Wind_Speed
26 28 31 33 35 37 39 41 42 41 40 39 39 38 37 38 39 41 42 43 44 45 46 46 46 47 48 49 50 51 52 53 53 53 52 52 52 52 51 49 47 46 46
31 32 33 35 36 37 37 37 37 36 36 37 38 38 39 39 40 42 43 44 46 47 49 50 50 51 52 53 54 54 55 56 55 54 54 53 53 53 53 52 51 50 48
36 36 36 36 36 35 35 36 36 36 37 38 39 41 42 44 46 47 49 50 51 52 53 54 55 55 56 56 57 58 58 59 59 59 58 58 57 57 57 56 55 53 52
38 38 37 36 36 35 36 36 37 38 40 41 42 44 45 47 49 50 52 53 54 54 55 56 57 57 57 56 56 57 58 58 59 60 60 60 60 60 59 59 58 57 56
38 37 36 36 36 36 37 39 41 43 44 46 47 47 48 48 49 51 53 55 57 58 59 59 59 59 60 60 60 60 60 60 60 60 60 60 59 59 59 58 58 58 58
36 36 37 37 38 39 41 43 44 46 48 49 49 50 50 52 54 56 58 60 62 63 64 65 65 65 66 67 68 68 68 67 66 64 63 62 61 61 60 59 58 58 58
37 38 39 40 41 42 44 45 46 48 50 52 53 54 56 59 61 63 65 67 68 69 70 72 73 74 74 75 75 75 75 74 72 71 69 67 66 65 63 62 61 60 59
39 40 41 41 42 43 45 46 48 50 52 55 58 61 62 63 65 67 70 72 73 74 75 76 78 79 80 82 82 82 81 79 78 76 75 74 72 69 66 63 62 62 62
40 40 41 41 43 44 46 48 50 53 55 58 61 65 69 71 72 72 74 75 77 78 80 82 84 85 87 88 88 87 87 86 85 84 82 80 77 73 69 64 62 63 63
40 41 42 44 45 47 49 52 55 58 61 64 67 70 74 77 80 81 82 84 85 86 88 89 91 92 94 94 94 92 91 90 89 87 86 84 80 76 71 69 67 66 67
41 42 44 46 49 52 55 58 62 64 67 70 73 76 79 81 85 88 90 92 93 94 96 97 98 99 100 100 99 97 96 93 90 88 85 81 77 73 70 71 73 73 72
44 46 48 51 54 57 61 64 67 69 72 75 79 82 86 89 91 94 95 95 96 97 99 100 101 102 103 102 99 96 94 91 87 85 85 83 78 75 73 74 76 77 76
47 50 54 57 60 63 65 67 70 73 77 80 83 86 90 93 96 99 101 102 102 102 103 103 103 102 100 97 93 88 84 82 81 80 82 86 87 86 82 79 78 78 77
52 55 58 62 64 66 68 70 74 78 81 84 88 92 95 97 99 102 104 106 108 108 106 103 100 97 93 88 85 80 77 76 76 78 79 82 85 88 90 88 84 78 74
57 59 62 64 67 69 72 75 79 82 85 89 93 96 97 99 100 100 100 102 105 106 104 96 91 88 87 84 79 75 71 70 71 70 71 77 82 83 85 89 93 91 83
61 63 65 68 70 73 76 80 82 86 90 94 96 98 99 100 100 99 99 99 99 100 98 90 85 83 84 85 81 77 72 69 67 66 64 66 71 78 82 82 82 88 94
65 67 68 70 73 77 80 83 86 90 94 97 98 100 100 100 99 98 97 96 94 93 93 86 79 76 78 81 83 82 77 73 70 68 66 65 63 64 69 73 74 76 81
67 69 70 74 77 80 84 86 89 93 96 98 99 100 99 99 97 96 94 90 87 84 82 79 73 70 69 71 76 80 81 78 74 71 69 67 63 61 59 59 62 66 69
69 71 74 77 80 84 86 89 92 95 97 98 98 98 97 96 94 92 88 83 79 76 74 75 74 72 71 68 68 69 74 79 78 74 72 70 67 65 64 63 62 62 63
72 75 77 80 83 86 88 91 93 96 98 97 96 95 93 92 91 86 81 76 73 71 71 73 73 71 68 64 62 60 62 68 76 78 77 75 73 72 70 69 68 67 67
75 77 79 82 85 87 90 93 96 97 96 94 92 89 89 89 86 80 75 71 70 69 69 69 69 66 62 59 56 53 53 54 62 72 78 78 77 76 75 75 75 74 74
76 79 82 84 86 90 93 95 96 96 93 90 87 86 88 86 80 74 70 68 68 66 65 66 65 61 57 54 52 48 45 44 47 54 66 71 76 77 78 79 78 76 73
78 81 84 87 89 92 93 93 93 91 88 86 85 87 86 81 75 70 66 64 61 60 61 64 63 59 56 53 49 43 38 34 31 34 44 50 57 63 65 65 64 62 62
80 82 86 89 91 92 91 90 89 87 84 83 84 86 83 75 70 67 63 59 55 55 57 59 59 57 54 50 45 38 29 21 17 19 25 28 35 41 44 46 48 49 51
81 85 89 92 92 90 88 86 85 82 80 80 83 83 77 70 66 63 60 56 53 53 54 54 52 51 48 43 37 28 18 10 6 9 14 16 19 25 30 33 36 38 39
84 89 92 93 91 88 85 82 80 79 78 80 81 78 70 65 61 58 57 55 53 52 49 44 41 41 38 33 29 23 14 5 2 4 9 12 13 16 19 22 25 27 30
Wind_Direction
291 288 285 284 283 282 282 283 284 286 288 289 290 289 288 288 287 286 285 285 285 285 285 284 284 283 283 282 280 279 278 277 277 277 278 278 277 277 276 275 274 275 276
291 290 288 286 286 285 285 286 287 288 288 288 288 289 289 289 288 287 287 286 286 286 286 286 285 285 284 283 281 280 279 279 279 279 278 278 277 277 276 276 275 274 274
295 294 292 291 290 289 289 290 290 290 290 290 291 292 292 292 292 291 291 290 289 288 288 288 287 285 284 283 282 282 281 280 280 279 278 277 276 276 275 275 274 273 272
298 296 294 293 292 291 290 290 290 291 291 291 292 293 293 293 293 293 293 292 292 291 290 289 287 286 284 283 281 280 280 280 280 280 279 278 277 277 276 276 275 273 271
298 296 294 292 290 289 290 292 293 294 294 294 295 295 295 295 295 295 295 294 293 292 290 288 287 286 286 285 284 283 282 281 280 278 277 276 276 276 275 275 274 272 271
298 296 295 294 293 294 295 296 296 296 297 297 297 297 297 297 296 296 295 294 293 292 290 289 287 286 285 284 284 283 283 282 280 278 276 274 273 271 270 270 270 270 270
300 301 302 302 302 301 300 300 300 301 301 301 300 299 298 297 296 295 294 293 292 291 289 288 287 286 285 283 282 282 281 279 278 276 274 273 271 269 268 266 265 264 265
304 305 305 304 303 302 302 302 301 301 300 300 300 299 297 296 294 294 294 293 291 289 287 286 286 285 284 283 282 281 279 277 276 274 273 271 269 267 265 264 263 261 260
302 302 302 301 300 300 299 299 299 299 299 300 300 300 299 298 296 294 293 292 290 289 288 286 285 284 282 281 280 278 277 275 273 271 270 269 268 266 265 263 261 259 258
299 298 297 297 297 298 299 300 302 302 302 303 303 303 302 301 299 298 296 295 294 292 289 287 285 283 282 280 278 276 274 272 270 268 268 267 266 263 262 260 259 257 256
294 295 297 300 301 303 304 305 306 306 306 305 304 303 302 301 300 299 297 296 295 293 291 289 287 285 283 281 279 276 273 271 267 264 262 261 260 258 257 256 254 253 253
297 301 303 305 305 306 307 307 307 307 306 305 305 304 303 302 301 299 298 296 295 293 292 291 288 286 283 280 278 275 273 270 265 261 257 253 250 248 248 249 249 249 249
302 304 306 307 308 308 307 307 307 306 305 305 305 305 304 304 303 302 301 300 299 297 296 294 291 288 285 281 278 274 270 266 262 257 252 249 247 244 243 243 245 246 247
304 306 307 307 307 306 306 306 306 306 306 306 306 307 307 306 306 306 305 303 302 300 298 295 292 289 287 284 281 277 272 267 262 258 253 248 247 246 244 241 240 240 240
306 306 306 306 306 306 307 307 307 307 308 308 309 309 309 308 307 306 304 302 300 298 296 294 291 289 287 285 283 280 275 268 264 260 256 251 247 246 245 244 242 240 237
306 306 306 307 307 308 308 308 309 309 310 310 310 310 309 308 306 304 303 301 299 298 297 296 292 287 283 280 279 276 272 267 263 259 256 254 251 249 248 248 246 244 242
307 307 307 308 308 308 309 310 310 311 311 311 311 311 310 308 306 305 303 302 301 300 298 298 295 290 284 278 273 270 268 264 260 256 253 251 249 248 249 251 252 250 247
307 307 308 308 309 310 311 311 311 312 312 313 313 312 310 308 307 307 306 305 303 301 300 300 300 298 293 287 278 269 264 260 257 254 251 249 247 245 246 248 250 253 253
308 308 308 309 310 311 312 313 313 314 315 315 313 312 310 309 310 309 308 306 303 301 301 302 302 302 300 294 286 276 266 258 254 252 250 248 247 246 246 247 249 251 254
308 309 310 311 312 313 314 315 316 317 317 315 313 311 311 312 312 311 309 306 303 302 302 303 304 305 304 299 292 283 270 260 253 250 249 249 249 249 249 250 252 253 256
309 310 311 313 314 315 316 317 318 319 317 314 312 312 313 315 314 312 309 306 305 305 305 306 307 308 307 304 298 290 279 265 255 250 248 249 250 252 253 254 255 257 258
310 312 313 314 316 317 318 318 319 318 316 314 313 314 316 316 314 311 308 306 306 307 308 308 308 308 309 308 304 299 290 274 260 253 251 249 251 253 255 257 258 258 255
312 314 315 316 317 318 318 318 318 316 315 314 315 318 318 317 314 311 308 307 307 307 308 310 310 309 308 308 307 304 298 288 275 258 251 249 250 252 254 256 256 254 250
313 315 315 317 317 318 318 317 316 315 315 315 318 320 319 317 313 310 309 309 309 308 310 311 310 309 310 310 310 309 304 294 278 260 252 249 248 251 253 253 253 251 246
314 315 316 317 317 317 317 316 315 315 316 318 321 321 320 318 315 312 310 310 309 310 312 312 310 310 311 313 313 313 309 299 262 253 259 257 254 256 255 253 250 246 239
315 316 316 317 317 317 316 315 315 316 318 321 322 322 321 319 317 314 311 310 309 311 313 312 311 311 312 313 314 314 311 285 207 227 263 261 256 259 256 248 241 234 227
Height
5806 5803 5801 5798 5796 5794 5791 5787 5784 5781 5778 5776 5773 5769 5766 5764 5761 5759 5757 5754 5750 5747 5744 5741 5738 5736 5733 5731 5729 5726 5724 5722 5720 5719 5718 5716 5715 5714 5713 5712 5712 5712 5712
5800 5797 5794 5791 5788 5785 5781 5778 5776 5773 5771 5768 5765 5762 5759 5756 5754 5750 5748 5745 5742 5738 5734 5731 5728 5725 5722 5719 5716 5714 5711 5709 5707 5705 5704 5703 5702 5700 5700 5699 5699 5699 5699
5793 5790 5786 5783 5779 5776 5773 5771 5768 5766 5763 5760 5757 5754 5751 5748 5745 5741 5738 5735 5732 5728 5724 5720 5716 5712 5709 5706 5703 5700 5698 5695 5694 5691 5690 5688 5687 5686 5685 5685 5685 5685 5684
5786 5782 5779 5775 5772 5769 5766 5763 5760 5757 5754 5751 5748 5745 5742 5739 5735 5731 5727 5723 5720 5717 5713 5708 5703 5699 5695 5692 5689 5686 5683 5681 5679 5677 5676 5674 5673 5672 5671 5671 5670 5670 5669
5778 5775 5771 5768 5765 5762 5758 5755 5752 5749 5745 5742 5739 5736 5732 5729 5725 5721 5716 5712 5707 5703 5699 5695 5691 5686 5681 5677 5674 5671 5669 5666 5664 5661 5659 5658 5658 5657 5656 5656 5655 5655 5655
5770 5767 5764 5761 5758 5754 5751 5748 5744 5740 5737 5733 5730 5726 5723 5718 5714 5710 5705 5700 5695 5689 5684 5679 5675 5671 5666 5662 5657 5654 5651 5648 5646 5644 5642 5641 5641 5640 5640 5639 5639 5639 5640
5762 5759 5756 5752 5749 5746 5742 5739 5735 5731 5726 5722 5718 5715 5711 5706 5701 5696 5691 5686 5681 5675 5669 5662 5657 5651 5647 5642 5638 5634 5630 5627 5626 5625 5623 5623 5622 5621 5621 5622 5622 5623 5623
5755 5751 5748 5744 5741 5737 5732 5728 5724 5720 5715 5709 5703 5699 5696 5694 5688 5682 5675 5669 5663 5657 5651 5645 5638 5631 5625 5619 5616 5611 5607 5603 5601 5601 5601 5601 5601 5601 5601 5602 5604 5605 5605
5747 5744 5740 5736 5732 5728 5723 5719 5713 5708 5703 5697 5690 5682 5676 5672 5670 5667 5659 5652 5646 5639 5632 5626 5619 5611 5603 5596 5592 5588 5582 5577 5574 5574 5575 5578 5579 5580 5581 5582 5583 5584 5586
5739 5735 5731 5727 5723 5718 5712 5706 5700 5694 5687 5681 5674 5666 5658 5650 5643 5639 5634 5626 5620 5614 5607 5600 5593 5585 5576 5568 5563 5560 5555 5550 5546 5545 5547 5551 5555 5557 5559 5560 5561 5562 5564
5731 5727 5722 5717 5712 5706 5699 5692 5685 5678 5671 5663 5655 5646 5639 5630 5621 5614 5610 5603 5594 5586 5577 5570 5561 5553 5545 5535 5528 5523 5520 5519 5516 5515 5517 5520 5525 5529 5531 5533 5535 5538 5540
5721 5717 5712 5706 5700 5693 5686 5678 5670 5662 5654 5645 5635 5625 5615 5606 5596 5587 5581 5576 5569 5562 5551 5542 5530 5519 5510 5500 5493 5487 5486 5486 5485 5485 5486 5489 5493 5497 5501 5504 5507 5511 5516
5711 5706 5700 5693 5687 5679 5672 5664 5655 5646 5636 5626 5616 5605 5594 5582 5570 5557 5546 5539 5534 5530 5521 5512 5496 5483 5472 5464 5459 5455 5455 5454 5453 5454 5456 5461 5465 5469 5474 5478 5482 5487 5492
5701 5694 5688 5681 5673 5666 5657 5648 5638 5628 5617 5606 5594 5582 5570 5556 5542 5527 5511 5498 5489 5488 5486 5481 5466 5451 5438 5432 5428 5427 5426 5426 5425 5426 5429 5433 5437 5442 5447 5452 5457 5462 5467
5689 5682 5674 5666 5658 5649 5640 5630 5619 5608 5596 5583 5571 5558 5544 5531 5516 5501 5485 5468 5451 5440 5443 5447 5437 5427 5412 5405 5402 5400 5399 5400 5400 5400 5402 5406 5410 5414 5419 5426 5432 5437 5442
5675 5667 5659 5650 5641 5632 5622 5611 5600 5588 5575 5562 5548 5535 5521 5506 5491 5476 5460 5445 5426 5406 5399 5407 5405 5400 5388 5379 5376 5374 5374 5375 5376 5377 5378 5380 5384 5389 5394 5398 5404 5411 5416
5660 5652 5643 5634 5624 5614 5603 5592 5580 5567 5555 5541 5526 5511 5495 5478 5463 5448 5433 5418 5403 5385 5370 5371 5370 5366 5358 5350 5347 5344 5345 5348 5352 5354 5355 5357 5362 5366 5371 5376 5380 5385 5392
5646 5637 5627 5617 5606 5594 5583 5572 5561 5548 5534 5519 5502 5484 5468 5451 5436 5422 5407 5393 5379 5364 5349 5341 5341 5336 5330 5322 5316 5314 5315 5318 5324 5329 5331 5335 5339 5345 5350 5355 5360 5365 5370
5630 5621 5610 5599 5587 5576 5565 5553 5541 5527 5511 5493 5476 5459 5443 5427 5413 5399 5384 5369 5356 5345 5332 5320 5314 5309 5304 5296 5287 5283 5283 5287 5294 5301 5306 5311 5317 5323 5328 5335 5341 5346 5351
5615 5604 5592 5580 5569 5557 5545 5532 5519 5504 5488 5470 5453 5436 5421 5406 5391 5376 5363 5349 5336 5326 5316 5303 5293 5286 5279 5271 5260 5253 5253 5256 5263 5272 5279 5286 5293 5299 5306 5313 5320 5325 5330
5599 5587 5575 5563 5551 5538 5525 5511 5497 5481 5465 5449 5433 5417 5402 5387 5371 5355 5341 5329 5318 5308 5297 5285 5275 5266 5259 5249 5241 5233 5228 5230 5236 5243 5250 5260 5269 5277 5283 5288 5294 5300 5307
5582 5570 5558 5546 5533 5519 5505 5490 5474 5459 5444 5427 5413 5399 5384 5367 5352 5339 5326 5313 5302 5290 5279 5268 5259 5250 5243 5234 5225 5218 5213 5211 5216 5223 5224 5237 5243 5251 5257 5262 5268 5273 5280
5566 5554 5541 5528 5515 5500 5485 5470 5454 5439 5423 5407 5393 5379 5363 5348 5333 5321 5311 5301 5290 5278 5266 5254 5243 5235 5228 5221 5213 5207 5202 5198 5199 5202 5206 5216 5222 5228 5234 5239 5244 5249 5256
5551 5538 5526 5512 5497 5481 5466 5450 5435 5421 5406 5391 5376 5359 5343 5330 5316 5303 5294 5286 5277 5268 5257 5244 5231 5221 5214 5208 5202 5197 5193 5191 5192 5193 5196 5202 5207 5212 5216 5221 5226 5231 5238
5535 5522 5508 5494 5478 5462 5446 5431 5417 5404 5391 5377 5361 5343 5326 5313 5300 5288 5278 5271 5264 5257 5247 5234 5221 5211 5204 5199 5193 5191 5189 5187 5188 5189 5191 5194 5199 5202 5205 5209 5213 5218 5226
5518 5504 5489 5473 5458 5444 5429 5414 5399 5386 5375 5363 5347 5329 5313 5299 5286 5275 5264 5256 5250 5244 5236 5227 5216 5206 5199 5193 5189 5187 5186 5186 5186 5188 5190 5191 5194 5196 5199 5202 5206 5211 5220